Regional Weather Roundup
Issued by NWS Bismarck, ND

Home | Current Version | Previous Version | Text Only | Print | Product List | Glossary On
Versions: 1 2 3 4 5 6 7 8 9 10 11 12 13 14 15 16 17 18 19 20 21 22 23 24 25 26 27 28 29 30 31 32 33 34 35 36 37 38 39 40 41 42 43 44 45 46 47 48 49 50
000
ASUS43 KBIS 142020
RWRBIS

NWR BROADCAST TEXT
NATIONAL WEATHER SERVICE BISMARCK ND
300 PM CDT SUN SEP 14 2014

NOTE: "FAIR" INDICATES FEW OR NO CLOUDS BELOW 12,000 FEET WITH NO
SIGNIFICANT WEATHER AND/OR OBSTRUCTIONS TO VISIBILITY.


CITY           SKY/WX    TMP DP  RH WIND       PRES   REMARKS
WILLISTON      PTSUNNY   58  31  35 MISG      30.16F
MINOT          PTSUNNY   53  34  48 NW8       30.14F
MINOT AFB      PTSUNNY   55  34  44 N12G20    30.13F
BISMARCK       CLOUDY    58  36  43 VRB6      30.15F
DICKINSON      PTSUNNY   54  29  38 VRB3      30.13F
GARRISON         N/A     56  33  42 NW14      30.15F
HETTINGER ARPT PTSUNNY   55  28  35 S8        30.14F
JAMESTOWN      MOSUNNY   54  43  66 W7        30.13F
BEACH            N/A     54  28  37 E5        30.15F
CARRINGTON     CLOUDY    55  39  54 NW8       30.13F
CROSBY         MOCLDY    54  32  43 NW3       30.16S
HARVEY         MOCLDY    57  37  47 NW10      30.13F
HAZEN          MOCLDY    57  32  38 NW10      30.16F
LINTON         FAIR      55  39  54 W8        30.14F
MANDAN         MOCLDY    54  34  47 N6        30.15F
OAKES            N/A     55  43  62 NW9       30.14S
RUGBY          MOCLDY    54  37  54 NW12      30.14S
STANLEY        FAIR      55  30  38 N9        30.15F
TIOGA          FAIR      55  25  30 NW5       30.18F
WATFORD CITY   FAIR      59  28  31 NE3       30.13F
$$

CITY           SKY/WX    TMP DP  RH WIND       PRES   REMARKS
GRAND FORKS    PTSUNNY   58  42  55 NW9G16    30.10F
GRAND FORKS AF PTSUNNY   59  43  55 NW6       30.10F
DEVILS LAKE    CLOUDY    54  36  50 NW12      30.11S
FARGO          CLOUDY    59  44  57 NW9       30.11F
CANDO          MOCLDY    55  34  44 NW12      30.12F
CAVALIER       CLOUDY    54  41  62 NW13G20   30.10S
GRAFTON        MOCLDY    55  41  58 N15       30.09S
GWINNER        PTCLDY    59  41  51 N9G20     30.14S
LANGDON        CLOUDY    54  36  50 NW13      30.11S
ROLLA          CLOUDY    50  34  53 NW10      30.14F
WALHALLA         N/A     55  39  54 NW12G17   30.11S
$$

CITY           SKY/WX    TMP DP  RH WIND       PRES   REMARKS
ABERDEEN       PTSUNNY   57  39  51 NW8       30.14F
MOBRIDGE       PTSUNNY   56  41  57 CALM      30.13F
BUFFALO          N/A     59  36  42 E7        30.06F
RAPID CITY     CLOUDY    51  37  58 SE8       30.13F
GLASGOW        CLOUDY    57  35  43 S8        30.14F
SIDNEY         MOSUNNY   57  27  30 CALM      30.16F
WOLF POINT     PTSUNNY   60  30  32 SW5       30.15F
GLENDIVE       CLOUDY    54  32  43 E6        30.15F
MILES CITY     SUNNY     60  34  37 E8        30.09F
BAKER          MOSUNNY   58  32  37 E13       30.13F
$$

CITY           SKY/WX    TMP DP  RH WIND       PRES   REMARKS
BILLINGS       MOSUNNY   59  38  45 E5        30.08F
GREAT FALLS    SUNNY     62  37  39 VRB5      30.11S
REGINA         PTSUNNY   55  34  44 NW8       30.13F
ESTEVAN        PTSUNNY   54  34  47 NW5       30.15F
$$




USA.gov is the U.S. government's official web portal to all federal, state and local government web resources and services.